| time (UTC) | temp F | wind direction | speed MPH | gust MPH | rain 1hr in | rain 24hr in | rain mn in | humidity % | barometer mb |
| 20260509232521 | 77 | 75 | 0.0 | 8.0 | 0.00 | 0.03 | 0.03 | 88 | 1012.1 |
| 20260509232021 | 77 | 85 | 0.0 | 6.0 | 0.00 | 0.03 | 0.03 | 88 | 1012.2 |
| 20260509231541 | 77 | 0 | 1.0 | 6.0 | 0.01 | 0.03 | 0.03 | 88 | 1012.1 |
| 20260509231021 | 77 | 88 | 0.0 | 7.0 | 0.03 | 0.03 | 0.03 | 88 | 1012.1 |
| 20260509230523 | 77 | 85 | 2.0 | 12.0 | 0.03 | 0.03 | 0.03 | 88 | 1012.1 |
| 20260509230041 | 78 | 42 | 4.0 | 13.0 | 0.03 | 0.03 | 0.03 | 87 | 1012.1 |
| 20260509225522 | 78 | 41 | 9.0 | 13.0 | 0.03 | 0.03 | 0.03 | 85 | 1012.1 |
| 20260509225025 | 80 | 90 | 8.0 | 11.0 | 0.03 | 0.03 | 0.03 | 85 | 1012.1 |
| 20260509224550 | 80 | 121 | 8.0 | 15.0 | 0.03 | 0.03 | 0.03 | 83 | 1012.2 |
| 20260509224021 | 80 | 140 | 9.0 | 18.0 | 0.03 | 0.03 | 0.03 | 82 | 1012.0 |
| 20260509223522 | 80 | 142 | 12.0 | 18.0 | 0.03 | 0.03 | 0.03 | 82 | 1011.7 |
| 20260509223040 | 82 | 136 | 14.0 | 17.0 | 0.03 | 0.03 | 0.03 | 80 | 1011.5 |
| 20260509222524 | 84 | 107 | 12.0 | 15.0 | 0.03 | 0.03 | 0.03 | 76 | 1011.4 |
| 20260509222023 | 86 | 92 | 4.0 | 11.0 | 0.03 | 0.03 | 0.03 | 73 | 1011.3 |
| 20260509221543 | 87 | 109 | 1.0 | 11.0 | 0.02 | 0.02 | 0.02 | 67 | 1011.1 |
| 20260509221023 | 88 | 16 | 3.0 | 13.0 | 0.00 | 0.00 | 0.00 | 63 | 1010.9 |
| 20260509220523 | 89 | 302 | 5.0 | 18.0 | 0.00 | 0.00 | 0.00 | 62 | 1010.7 |
| 20260509220035 | 89 | 306 | 5.0 | 18.0 | 0.00 | 0.00 | 0.00 | 60 | 1010.4 |
| 20260509215523 | 90 | 265 | 10.0 | 18.0 | 0.00 | 0.00 | 0.00 | 58 | 1010.4 |
| 20260509215019 | 91 | 274 | 2.0 | 7.0 | 0.00 | 0.00 | 0.00 | 60 | 1010.1 |
| 20260509214542 | 91 | 245 | 4.0 | 10.0 | 0.00 | 0.00 | 0.00 | 55 | 1010.1 |
| 20260509214022 | 91 | 231 | 4.0 | 10.0 | 0.00 | 0.00 | 0.00 | 57 | 1010.2 |
| 20260509213524 | 91 | 242 | 5.0 | 10.0 | 0.00 | 0.00 | 0.00 | 56 | 1010.2 |
| 20260509213042 | 91 | 245 | 3.0 | 10.0 | 0.00 | 0.00 | 0.00 | 59 | 1010.3 |
| 20260509212524 | 91 | 257 | 5.0 | 12.0 | 0.00 | 0.00 | 0.00 | 59 | 1010.3 |
| 20260509212022 | 91 | 246 | 7.0 | 12.0 | 0.00 | 0.00 | 0.00 | 55 | 1010.1 |
| 20260509211545 | 91 | 249 | 8.0 | 11.0 | 0.00 | 0.00 | 0.00 | 56 | 1010.2 |
| 20260509211023 | 91 | 221 | 6.0 | 12.0 | 0.00 | 0.00 | 0.00 | 53 | 1010.2 |
| 20260509210526 | 91 | 239 | 8.0 | 15.0 | 0.00 | 0.00 | 0.00 | 53 | 1010.2 |
| 20260509210044 | 92 | 263 | 9.0 | 15.0 | 0.00 | 0.00 | 0.00 | 54 | 1010.1 |
| 20260509205523 | 92 | 247 | 6.0 | 15.0 | 0.00 | 0.00 | 0.00 | 54 | 1010.1 |
| 20260509205023 | 92 | 243 | 9.0 | 15.0 | 0.00 | 0.00 | 0.00 | 54 | 1010.1 |
| 20260509204535 | 92 | 261 | 8.0 | 15.0 | 0.00 | 0.00 | 0.00 | 54 | 1010.1 |
| 20260509204022 | 91 | 236 | 9.0 | 17.0 | 0.00 | 0.00 | 0.00 | 54 | 1010.1 |
| 20260509203522 | 91 | 251 | 12.0 | 17.0 | 0.00 | 0.00 | 0.00 | 51 | 1010.1 |
| 20260509203043 | 91 | 234 | 10.0 | 15.0 | 0.00 | 0.00 | 0.00 | 53 | 1010.0 |
| 20260509202523 | 91 | 232 | 11.0 | 15.0 | 0.00 | 0.00 | 0.00 | 56 | 1010.1 |
| 20260509202024 | 91 | 236 | 8.0 | 14.0 | 0.00 | 0.00 | 0.00 | 53 | 1010.1 |
| 20260509201549 | 91 | 245 | 7.0 | 14.0 | 0.00 | 0.00 | 0.00 | 55 | 1010.2 |
| 20260509201022 | 91 | 219 | 7.0 | 14.0 | 0.00 | 0.00 | 0.00 | 54 | 1010.2 |
| 20260509200522 | 91 | 227 | 8.0 | 13.0 | 0.00 | 0.00 | 0.00 | 54 | 1010.2 |
| 20260509200051 | 91 | 250 | 7.0 | 12.0 | 0.00 | 0.00 | 0.00 | 56 | 1010.4 |
| 20260509195525 | 91 | 193 | 5.0 | 10.0 | 0.00 | 0.00 | 0.00 | 58 | 1010.4 |
| 20260509195023 | 91 | 229 | 5.0 | 10.0 | 0.00 | 0.00 | 0.00 | 55 | 1010.4 |
| 20260509194540 | 91 | 216 | 5.0 | 12.0 | 0.00 | 0.00 | 0.00 | 59 | 1010.5 |
| 20260509194022 | 91 | 223 | 7.0 | 13.0 | 0.00 | 0.00 | 0.00 | 54 | 1010.7 |
| 20260509193522 | 91 | 255 | 8.0 | 14.0 | 0.00 | 0.00 | 0.00 | 57 | 1010.6 |
| 20260509193038 | 91 | 218 | 7.0 | 14.0 | 0.00 | 0.00 | 0.00 | 57 | 1010.8 |
| 20260509192538 | 91 | 253 | 10.0 | 14.0 | 0.00 | 0.00 | 0.00 | 56 | 1010.8 |
| 20260509192022 | 90 | 238 | 9.0 | 12.0 | 0.00 | 0.00 | 0.00 | 58 | 1010.9 |
| 20260509191536 | 90 | 240 | 7.0 | 12.0 | 0.00 | 0.00 | 0.00 | 55 | 1010.9 |
| 20260509191024 | 90 | 225 | 8.0 | 17.0 | 0.00 | 0.00 | 0.00 | 56 | 1011.1 |
| 20260509190522 | 90 | 241 | 10.0 | 17.0 | 0.00 | 0.00 | 0.00 | 57 | 1011.1 |
| 20260509190051 | 90 | 213 | 9.0 | 14.0 | 0.00 | 0.00 | 0.00 | 55 | 1011.1 |
| 20260509185523 | 90 | 229 | 9.0 | 14.0 | 0.00 | 0.00 | 0.00 | 55 | 1011.2 |
| 20260509185022 | 90 | 246 | 7.0 | 11.0 | 0.00 | 0.00 | 0.00 | 54 | 1011.3 |
| 20260509184541 | 90 | 237 | 4.0 | 11.0 | 0.00 | 0.00 | 0.00 | 55 | 1011.3 |
| 20260509184022 | 90 | 224 | 6.0 | 11.0 | 0.00 | 0.00 | 0.00 | 56 | 1011.4 |
| 20260509183524 | 90 | 202 | 8.0 | 12.0 | 0.00 | 0.00 | 0.00 | 59 | 1011.5 |
| 20260509183042 | 90 | 219 | 7.0 | 12.0 | 0.00 | 0.00 | 0.00 | 56 | 1011.5 |
| 20260509182522 | 90 | 219 | 7.0 | 14.0 | 0.00 | 0.00 | 0.00 | 56 | 1011.6 |
| 20260509182021 | 90 | 273 | 7.0 | 14.0 | 0.00 | 0.00 | 0.00 | 59 | 1011.7 |
| 20260509181543 | 89 | 249 | 8.0 | 15.0 | 0.00 | 0.00 | 0.00 | 57 | 1011.9 |
| 20260509181023 | 89 | 244 | 7.0 | 15.0 | 0.00 | 0.00 | 0.00 | 60 | 1012.0 |
| 20260509180523 | 89 | 268 | 9.0 | 13.0 | 0.00 | 0.00 | 0.00 | 60 | 1012.0 |
| 20260509180040 | 89 | 262 | 9.0 | 14.0 | 0.00 | 0.00 | 0.00 | 59 | 1012.0 |
| 20260509175523 | 89 | 260 | 7.0 | 16.0 | 0.00 | 0.00 | 0.00 | 61 | 1012.0 |
| 20260509175021 | 89 | 252 | 11.0 | 16.0 | 0.00 | 0.00 | 0.00 | 60 | 1012.1 |
| 20260509174535 | 89 | 261 | 10.0 | 15.0 | 0.00 | 0.00 | 0.00 | 61 | 1012.1 |
| 20260509174022 | 88 | 246 | 8.0 | 15.0 | 0.00 | 0.00 | 0.00 | 61 | 1012.0 |
| 20260509173523 | 88 | 264 | 8.0 | 17.0 | 0.00 | 0.00 | 0.00 | 64 | 1012.1 |
| 20260509173042 | 88 | 294 | 10.0 | 17.0 | 0.00 | 0.00 | 0.00 | 62 | 1012.1 |
| 20260509172524 | 88 | 266 | 10.0 | 14.0 | 0.00 | 0.00 | 0.00 | 62 | 1012.1 |
| 20260509172022 | 88 | 261 | 5.0 | 15.0 | 0.00 | 0.00 | 0.00 | 64 | 1012.2 |
| 20260509171546 | 88 | 273 | 9.0 | 15.0 | 0.00 | 0.00 | 0.00 | 63 | 1012.2 |
| 20260509171023 | 87 | 267 | 10.0 | 15.0 | 0.00 | 0.00 | 0.00 | 64 | 1012.2 |
| 20260509170524 | 87 | 225 | 9.0 | 15.0 | 0.00 | 0.00 | 0.00 | 63 | 1012.3 |
| 20260509170041 | 87 | 262 | 9.0 | 15.0 | 0.00 | 0.00 | 0.00 | 65 | 1012.3 |
| 20260509165522 | 87 | 248 | 8.0 | 13.0 | 0.00 | 0.00 | 0.00 | 68 | 1012.3 |
| 20260509165024 | 86 | 265 | 7.0 | 13.0 | 0.00 | 0.00 | 0.00 | 68 | 1012.4 |
| 20260509164547 | 86 | 237 | 8.0 | 13.0 | 0.00 | 0.00 | 0.00 | 69 | 1012.5 |
| 20260509164026 | 86 | 270 | 7.0 | 13.0 | 0.00 | 0.00 | 0.00 | 69 | 1012.5 |
| 20260509163527 | 86 | 261 | 8.0 | 13.0 | 0.00 | 0.00 | 0.00 | 70 | 1012.6 |
| 20260509163038 | 85 | 252 | 7.0 | 13.0 | 0.00 | 0.00 | 0.00 | 70 | 1012.8 |
| 20260509162522 | 85 | 275 | 7.0 | 12.0 | 0.00 | 0.00 | 0.00 | 70 | 1012.8 |
| 20260509162023 | 84 | 267 | 6.0 | 12.0 | 0.00 | 0.00 | 0.00 | 71 | 1012.8 |
| 20260509161546 | 84 | 270 | 5.0 | 9.0 | 0.00 | 0.00 | 0.00 | 74 | 1012.8 |
| 20260509161023 | 84 | 246 | 3.0 | 8.0 | 0.00 | 0.00 | 0.00 | 74 | 1012.9 |
| 20260509160523 | 83 | 252 | 5.0 | 8.0 | 0.00 | 0.00 | 0.00 | 75 | 1013.0 |
| 20260509160041 | 83 | 231 | 3.0 | 8.0 | 0.00 | 0.00 | 0.00 | 76 | 1013.2 |
| 20260509155523 | 83 | 254 | 4.0 | 8.0 | 0.00 | 0.00 | 0.00 | 75 | 1013.1 |
| 20260509155022 | 83 | 263 | 3.0 | 8.0 | 0.00 | 0.00 | 0.00 | 75 | 1013.2 |
| 20260509154540 | 83 | 259 | 4.0 | 8.0 | 0.00 | 0.00 | 0.00 | 76 | 1013.3 |
| 20260509154024 | 83 | 242 | 3.0 | 8.0 | 0.00 | 0.00 | 0.00 | 76 | 1013.3 |
| 20260509153523 | 83 | 191 | 2.0 | 8.0 | 0.00 | 0.00 | 0.00 | 77 | 1013.3 |
| 20260509153040 | 83 | 191 | 6.0 | 8.0 | 0.00 | 0.00 | 0.00 | 77 | 1013.4 |
| 20260509152523 | 83 | 178 | 0.0 | 4.0 | 0.00 | 0.00 | 0.00 | 78 | 1013.4 |
| 20260509152022 | 83 | 0 | 0.0 | 4.0 | 0.00 | 0.00 | 0.00 | 79 | 1013.5 |
| 20260509151540 | 82 | 189 | 1.0 | 4.0 | 0.00 | 0.00 | 0.00 | 81 | 1013.5 |
| 20260509151023 | 82 | 0 | 0.0 | 1.0 | 0.00 | 0.00 | 0.00 | 83 | 1013.6 |
| 20260509150522 | 81 | 0 | 0.0 | 2.0 | 0.00 | 0.00 | 0.00 | 84 | 1013.5 |
| 20260509150042 | 80 | 0 | 0.0 | 2.0 | 0.00 | 0.00 | 0.00 | 86 | 1013.6 |
| 20260509145523 | 79 | 0 | 0.0 | 3.0 | 0.00 | 0.00 | 0.00 | 87 | 1013.5 |
| 20260509145023 | 78 | 0 | 0.0 | 3.0 | 0.00 | 0.00 | 0.00 | 87 | 1013.6 |
| 20260509144542 | 78 | 148 | 1.0 | 3.0 | 0.00 | 0.00 | 0.00 | 88 | 1013.5 |
| 20260509144023 | 77 | 128 | 1.0 | 4.0 | 0.00 | 0.00 | 0.00 | 89 | 1013.5 |
| 20260509143524 | 77 | 0 | 1.0 | 5.0 | 0.00 | 0.00 | 0.00 | 90 | 1013.5 |
| 20260509143041 | 76 | 127 | 3.0 | 5.0 | 0.00 | 0.00 | 0.00 | 90 | 1013.4 |
| 20260509142522 | 76 | 138 | 2.0 | 5.0 | 0.00 | 0.00 | 0.00 | 91 | 1013.4 |
| 20260509142022 | 76 | 0 | 0.0 | 0.0 | 0.00 | 0.00 | 0.00 | 92 | 1013.4 |
| 20260509141541 | 76 | 0 | 0.0 | 0.0 | 0.00 | 0.00 | 0.00 | 93 | 1013.5 |
| 20260509141025 | 75 | 0 | 0.0 | 0.0 | 0.00 | 0.00 | 0.00 | 94 | 1013.4 |
| 20260509140523 | 75 | 0 | 0.0 | 0.0 | 0.00 | 0.00 | 0.00 | 94 | 1013.4 |
| 20260509140043 | 74 | 0 | 0.0 | 0.0 | 0.00 | 0.00 | 0.00 | 94 | 1013.5 |
| 20260509135522 | 74 | 0 | 0.0 | 0.0 | 0.00 | 0.00 | 0.00 | 95 | 1013.6 |
| 20260509135022 | 74 | 0 | 0.0 | 0.0 | 0.00 | 0.00 | 0.00 | 95 | 1013.6 |
| 20260509134555 | 73 | 0 | 0.0 | 3.0 | 0.00 | 0.00 | 0.00 | 95 | 1013.7 |
| 20260509134023 | 73 | 0 | 0.0 | 4.0 | 0.00 | 0.00 | 0.00 | 95 | 1013.8 |
| 20260509133522 | 73 | 0 | 1.0 | 4.0 | 0.00 | 0.00 | 0.00 | 96 | 1013.7 |
| 20260509133043 | 73 | 235 | 2.0 | 4.0 | 0.00 | 0.00 | 0.00 | 96 | 1013.7 |
| 20260509132523 | 73 | 236 | 2.0 | 4.0 | 0.00 | 0.00 | 0.00 | 96 | 1013.7 |
| 20260509132022 | 73 | 236 | 2.0 | 4.0 | 0.00 | 0.00 | 0.00 | 96 | 1013.8 |
| 20260509131549 | 73 | 263 | 1.0 | 3.0 | 0.00 | 0.00 | 0.00 | 96 | 1013.7 |
| 20260509131022 | 73 | 263 | 0.0 | 3.0 | 0.00 | 0.00 | 0.00 | 96 | 1013.8 |
| 20260509130523 | 73 | 0 | 1.0 | 6.0 | 0.00 | 0.00 | 0.00 | 96 | 1013.8 |
| 20260509130042 | 73 | 263 | 1.0 | 6.0 | 0.00 | 0.00 | 0.00 | 96 | 1013.8 |
| 20260509125522 | 73 | 232 | 1.0 | 4.0 | 0.00 | 0.00 | 0.00 | 96 | 1013.7 |
| 20260509125022 | 73 | 0 | 0.0 | 0.0 | 0.00 | 0.00 | 0.00 | 96 | 1013.7 |
| 20260509124540 | 72 | 0 | 0.0 | 4.0 | 0.00 | 0.00 | 0.00 | 96 | 1013.7 |
| 20260509124021 | 72 | 0 | 0.0 | 4.0 | 0.00 | 0.00 | 0.00 | 96 | 1013.5 |
| 20260509123521 | 72 | 110 | 3.0 | 4.0 | 0.00 | 0.00 | 0.00 | 96 | 1013.4 |
| 20260509123039 | 72 | 0 | 0.0 | 0.0 | 0.00 | 0.00 | 0.00 | 96 | 1013.5 |
| 20260509122522 | 72 | 0 | 0.0 | 0.0 | 0.00 | 0.00 | 0.00 | 96 | 1013.5 |
| 20260509122021 | 72 | 0 | 0.0 | 2.0 | 0.00 | 0.00 | 0.00 | 96 | 1013.5 |
| 20260509121534 | 72 | 0 | 0.0 | 4.0 | 0.00 | 0.00 | 0.00 | 96 | 1013.3 |
| 20260509121022 | 72 | 76 | 1.0 | 6.0 | 0.00 | 0.00 | 0.00 | 96 | 1013.1 |
| 20260509120522 | 72 | 81 | 3.0 | 6.0 | 0.00 | 0.00 | 0.00 | 96 | 1013.1 |
| 20260509120043 | 72 | 85 | 1.0 | 6.0 | 0.00 | 0.00 | 0.00 | 96 | 1013.0 |
| 20260509115521 | 72 | 100 | 2.0 | 6.0 | 0.00 | 0.00 | 0.00 | 96 | 1013.1 |
| 20260509115024 | 72 | 61 | 0.0 | 4.0 | 0.00 | 0.00 | 0.00 | 96 | 1013.1 |
| 20260509114544 | 72 | 0 | 1.0 | 4.0 | 0.00 | 0.00 | 0.00 | 96 | 1013.0 |
| 20260509114021 | 72 | 0 | 0.0 | 4.0 | 0.00 | 0.00 | 0.00 | 96 | 1012.9 |
| 20260509113522 | 72 | 75 | 3.0 | 4.0 | 0.00 | 0.00 | 0.00 | 96 | 1012.9 |
| 20260509113047 | 72 | 77 | 2.0 | 4.0 | 0.00 | 0.00 | 0.00 | 96 | 1012.9 |
| 20260509112522 | 72 | 88 | 2.0 | 4.0 | 0.00 | 0.00 | 0.00 | 96 | 1012.8 |
| 20260509112021 | 72 | 82 | 2.0 | 4.0 | 0.00 | 0.00 | 0.00 | 96 | 1012.9 |
| 20260509111536 | 72 | 81 | 2.0 | 4.0 | 0.00 | 0.00 | 0.00 | 96 | 1012.8 |
| 20260509111025 | 72 | 0 | 0.0 | 3.0 | 0.00 | 0.00 | 0.00 | 95 | 1012.8 |
| 20260509110521 | 72 | 115 | 1.0 | 6.0 | 0.00 | 0.00 | 0.00 | 96 | 1012.6 |
| 20260509110043 | 72 | 20 | 1.0 | 6.0 | 0.00 | 0.00 | 0.00 | 95 | 1012.5 |
| 20260509105522 | 72 | 88 | 3.0 | 6.0 | 0.00 | 0.00 | 0.00 | 95 | 1012.3 |
| 20260509105021 | 73 | 91 | 2.0 | 5.0 | 0.00 | 0.00 | 0.00 | 95 | 1012.3 |
| 20260509104541 | 72 | 0 | 0.0 | 0.0 | 0.00 | 0.00 | 0.00 | 95 | 1012.2 |
| 20260509104021 | 72 | 0 | 0.0 | 0.0 | 0.00 | 0.00 | 0.00 | 95 | 1012.2 |
| 20260509103521 | 72 | 0 | 0.0 | 0.0 | 0.00 | 0.00 | 0.00 | 95 | 1012.3 |
| 20260509103042 | 72 | 0 | 0.0 | 0.0 | 0.00 | 0.00 | 0.00 | 95 | 1012.4 |
| 20260509102522 | 72 | 0 | 0.0 | 0.0 | 0.00 | 0.00 | 0.00 | 95 | 1012.3 |
| 20260509102024 | 72 | 0 | 0.0 | 0.0 | 0.00 | 0.00 | 0.00 | 95 | 1012.4 |
| 20260509101549 | 73 | 0 | 0.0 | 0.0 | 0.00 | 0.00 | 0.00 | 95 | 1012.3 |
| 20260509101022 | 73 | 0 | 0.0 | 0.0 | 0.00 | 0.00 | 0.00 | 95 | 1012.3 |
| 20260509100522 | 73 | 0 | 0.0 | 0.0 | 0.00 | 0.00 | 0.00 | 95 | 1012.4 |
| 20260509100040 | 73 | 0 | 0.0 | 0.0 | 0.00 | 0.00 | 0.00 | 95 | 1012.3 |
| 20260509095522 | 73 | 0 | 0.0 | 0.0 | 0.00 | 0.00 | 0.00 | 95 | 1012.2 |
| 20260509095022 | 73 | 0 | 0.0 | 0.0 | 0.00 | 0.00 | 0.00 | 95 | 1012.2 |
| 20260509094535 | 73 | 0 | 0.0 | 0.0 | 0.00 | 0.00 | 0.00 | 95 | 1012.3 |
| 20260509094021 | 73 | 0 | 0.0 | 0.0 | 0.00 | 0.00 | 0.00 | 95 | 1012.3 |
| 20260509093522 | 73 | 0 | 0.0 | 0.0 | 0.00 | 0.00 | 0.00 | 95 | 1012.3 |
| 20260509093042 | 73 | 0 | 0.0 | 0.0 | 0.00 | 0.00 | 0.00 | 95 | 1012.2 |
| 20260509092521 | 73 | 0 | 0.0 | 0.0 | 0.00 | 0.00 | 0.00 | 95 | 1012.4 |
| 20260509092023 | 74 | 0 | 0.0 | 3.0 | 0.00 | 0.00 | 0.00 | 95 | 1012.5 |
| 20260509091540 | 74 | 0 | 0.0 | 4.0 | 0.00 | 0.00 | 0.00 | 95 | 1012.5 |
| 20260509091021 | 74 | 321 | 0.0 | 4.0 | 0.00 | 0.00 | 0.00 | 95 | 1012.4 |
| 20260509090523 | 74 | 317 | 2.0 | 4.0 | 0.00 | 0.00 | 0.00 | 95 | 1012.4 |
| 20260509090040 | 74 | 0 | 0.0 | 2.0 | 0.00 | 0.00 | 0.00 | 95 | 1012.4 |
| 20260509085522 | 74 | 0 | 0.0 | 4.0 | 0.00 | 0.00 | 0.00 | 95 | 1012.4 |
| 20260509085021 | 74 | 0 | 0.0 | 4.0 | 0.00 | 0.00 | 0.00 | 95 | 1012.4 |
| 20260509084537 | 74 | 303 | 0.0 | 4.0 | 0.00 | 0.00 | 0.00 | 95 | 1012.5 |
| 20260509084021 | 74 | 307 | 0.0 | 4.0 | 0.00 | 0.00 | 0.00 | 95 | 1012.5 |
| 20260509083520 | 74 | 308 | 1.0 | 3.0 | 0.00 | 0.00 | 0.00 | 95 | 1012.5 |
| 20260509083043 | 74 | 0 | 0.0 | 0.0 | 0.00 | 0.00 | 0.00 | 95 | 1012.6 |
| 20260509082522 | 74 | 0 | 0.0 | 2.0 | 0.00 | 0.00 | 0.00 | 95 | 1012.7 |
| 20260509082021 | 74 | 0 | 0.0 | 2.0 | 0.00 | 0.00 | 0.00 | 95 | 1012.8 |
| 20260509081543 | 74 | 308 | 0.0 | 3.0 | 0.00 | 0.00 | 0.00 | 95 | 1012.6 |
| 20260509081022 | 74 | 0 | 0.0 | 4.0 | 0.00 | 0.00 | 0.00 | 95 | 1012.5 |
| 20260509080522 | 74 | 306 | 0.0 | 4.0 | 0.00 | 0.00 | 0.00 | 95 | 1012.4 |
| 20260509080041 | 74 | 312 | 0.0 | 4.0 | 0.00 | 0.00 | 0.00 | 95 | 1012.4 |
| 20260509075522 | 74 | 0 | 0.0 | 0.0 | 0.00 | 0.00 | 0.00 | 95 | 1012.3 |
| 20260509075021 | 74 | 0 | 0.0 | 0.0 | 0.00 | 0.00 | 0.00 | 95 | 1012.3 |
| 20260509074552 | 74 | 0 | 0.0 | 0.0 | 0.00 | 0.00 | 0.00 | 95 | 1012.3 |
| 20260509074024 | 74 | 0 | 0.0 | 0.0 | 0.00 | 0.00 | 0.00 | 94 | 1012.3 |
| 20260509073524 | 74 | 0 | 0.0 | 0.0 | 0.00 | 0.00 | 0.00 | 94 | 1012.3 |
| 20260509073036 | 74 | 0 | 0.0 | 0.0 | 0.00 | 0.00 | 0.00 | 94 | 1012.4 |
| 20260509072521 | 74 | 0 | 0.0 | 0.0 | 0.00 | 0.00 | 0.00 | 94 | 1012.4 |
| 20260509072021 | 74 | 0 | 0.0 | 0.0 | 0.00 | 0.00 | 0.00 | 94 | 1012.5 |
| 20260509071536 | 74 | 0 | 0.0 | 3.0 | 0.00 | 0.00 | 0.00 | 94 | 1012.6 |
| 20260509071025 | 74 | 0 | 0.0 | 3.0 | 0.00 | 0.00 | 0.00 | 94 | 1012.7 |
| 20260509070526 | 74 | 0 | 1.0 | 4.0 | 0.00 | 0.00 | 0.00 | 94 | 1012.7 |
| 20260509070048 | 74 | 303 | 2.0 | 4.0 | 0.00 | 0.00 | 0.00 | 93 | 1012.8 |
| 20260509065522 | 74 | 279 | 1.0 | 4.0 | 0.00 | 0.00 | 0.00 | 93 | 1012.7 |
| 20260509065021 | 74 | 272 | 0.0 | 3.0 | 0.00 | 0.00 | 0.00 | 93 | 1012.7 |
| 20260509064555 | 74 | 271 | 0.0 | 2.0 | 0.00 | 0.00 | 0.00 | 93 | 1012.7 |
| 20260509064023 | 74 | 0 | 0.0 | 2.0 | 0.00 | 0.00 | 0.00 | 92 | 1012.7 |
| 20260509063521 | 74 | 0 | 0.0 | 0.0 | 0.00 | 0.00 | 0.00 | 92 | 1012.7 |
| 20260509063044 | 74 | 0 | 0.0 | 0.0 | 0.00 | 0.00 | 0.00 | 91 | 1012.7 |
| 20260509062522 | 75 | 0 | 0.0 | 3.0 | 0.00 | 0.00 | 0.00 | 91 | 1012.7 |
| 20260509062022 | 75 | 0 | 0.0 | 3.0 | 0.00 | 0.00 | 0.00 | 91 | 1012.7 |
| 20260509061539 | 75 | 271 | 1.0 | 3.0 | 0.00 | 0.00 | 0.00 | 91 | 1012.9 |
| 20260509061021 | 75 | 222 | 1.0 | 2.0 | 0.00 | 0.00 | 0.00 | 90 | 1012.9 |
| 20260509060522 | 75 | 0 | 1.0 | 2.0 | 0.00 | 0.00 | 0.00 | 90 | 1013.0 |
| 20260509060044 | 75 | 198 | 0.0 | 2.0 | 0.00 | 0.00 | 0.00 | 90 | 1013.0 |
| 20260509055522 | 76 | 198 | 0.0 | 4.0 | 0.00 | 0.00 | 0.00 | 90 | 1013.0 |
| 20260509055020 | 76 | 198 | 1.0 | 4.0 | 0.00 | 0.00 | 0.00 | 90 | 1013.0 |
| 20260509054542 | 76 | 168 | 1.0 | 4.0 | 0.00 | 0.00 | 0.00 | 90 | 1013.1 |
| 20260509054023 | 76 | 167 | 2.0 | 4.0 | 0.00 | 0.00 | 0.00 | 90 | 1013.1 |
| 20260509053524 | 76 | 168 | 1.0 | 5.0 | 0.00 | 0.00 | 0.00 | 90 | 1013.1 |
| 20260509053041 | 76 | 167 | 2.0 | 5.0 | 0.00 | 0.00 | 0.00 | 90 | 1013.2 |
| 20260509052519 | 76 | 109 | 0.0 | 3.0 | 0.00 | 0.00 | 0.00 | 90 | 1013.2 |
| 20260509052019 | 76 | 0 | 0.0 | 4.0 | 0.00 | 0.00 | 0.00 | 90 | 1013.3 |
| 20260509051540 | 76 | 108 | 2.0 | 4.0 | 0.00 | 0.00 | 0.00 | 90 | 1013.3 |
| 20260509051023 | 76 | 110 | 0.0 | 4.0 | 0.00 | 0.00 | 0.00 | 90 | 1013.3 |
| 20260509050524 | 76 | 109 | 1.0 | 4.0 | 0.00 | 0.00 | 0.00 | 90 | 1013.4 |
| 20260509050040 | 76 | 111 | 0.0 | 4.0 | 0.00 | 0.00 | 0.00 | 90 | 1013.3 |
| 20260509045522 | 76 | 109 | 2.0 | 6.0 | 0.00 | 0.00 | 0.00 | 90 | 1013.4 |
| 20260509045021 | 76 | 109 | 2.0 | 6.0 | 0.00 | 0.00 | 0.00 | 90 | 1013.5 |
| 20260509044539 | 76 | 0 | 0.0 | 0.0 | 0.00 | 0.00 | 0.00 | 90 | 1013.5 |
| 20260509044021 | 76 | 0 | 0.0 | 0.0 | 0.00 | 0.00 | 0.00 | 90 | 1013.6 |
| 20260509043522 | 76 | 0 | 0.0 | 0.0 | 0.00 | 0.00 | 0.00 | 90 | 1013.7 |
| 20260509043050 | 76 | 0 | 0.0 | 2.0 | 0.00 | 0.00 | 0.00 | 90 | 1013.7 |
| 20260509042521 | 76 | 0 | 0.0 | 6.0 | 0.00 | 0.00 | 0.00 | 89 | 1013.9 |
| 20260509042021 | 76 | 0 | 1.0 | 7.0 | 0.00 | 0.00 | 0.00 | 89 | 1013.8 |
| 20260509041541 | 76 | 93 | 3.0 | 8.0 | 0.00 | 0.00 | 0.00 | 89 | 1013.8 |
| 20260509041022 | 77 | 115 | 5.0 | 8.0 | 0.00 | 0.00 | 0.00 | 89 | 1013.7 |
| 20260509040522 | 77 | 124 | 5.0 | 10.0 | 0.00 | 0.00 | 0.00 | 89 | 1013.7 |
| 20260509040045 | 77 | 115 | 6.0 | 12.0 | 0.00 | 0.00 | 0.00 | 89 | 1013.7 |
| 20260509035523 | 77 | 116 | 8.0 | 12.0 | 0.00 | 0.00 | 0.00 | 88 | 1013.8 |
| 20260509035021 | 77 | 113 | 8.0 | 12.0 | 0.00 | 0.00 | 0.00 | 88 | 1013.9 |
| 20260509034546 | 77 | 94 | 6.0 | 8.0 | 0.00 | 0.00 | 0.00 | 89 | 1013.9 |
| 20260509034024 | 77 | 107 | 4.0 | 7.0 | 0.00 | 0.00 | 0.00 | 88 | 1014.1 |
| 20260509033521 | 78 | 76 | 2.0 | 4.0 | 0.00 | 0.00 | 0.00 | 88 | 1014.1 |
| 20260509033048 | 78 | 69 | 2.0 | 4.0 | 0.00 | 0.00 | 0.00 | 87 | 1014.1 |
| 20260509032522 | 78 | 49 | 0.0 | 2.0 | 0.00 | 0.00 | 0.00 | 87 | 1013.9 |
| 20260509032020 | 78 | 303 | 1.0 | 4.0 | 0.00 | 0.00 | 0.00 | 86 | 1013.9 |
| 20260509031543 | 78 | 0 | 1.0 | 4.0 | 0.00 | 0.00 | 0.00 | 86 | 1014.0 |
| 20260509031022 | 78 | 0 | 0.0 | 4.0 | 0.00 | 0.00 | 0.00 | 85 | 1014.1 |
| 20260509030522 | 78 | 0 | 0.0 | 4.0 | 0.00 | 0.00 | 0.00 | 85 | 1014.1 |
| 20260509030042 | 78 | 0 | 1.0 | 6.0 | 0.00 | 0.00 | 0.00 | 85 | 1014.2 |
| 20260509025522 | 78 | 69 | 1.0 | 7.0 | 0.00 | 0.00 | 0.00 | 85 | 1014.1 |
| 20260509025021 | 79 | 65 | 4.0 | 7.0 | 0.00 | 0.00 | 0.00 | 85 | 1013.9 |
| 20260509024536 | 79 | 82 | 3.0 | 7.0 | 0.00 | 0.00 | 0.00 | 84 | 1013.8 |
| 20260509024021 | 79 | 71 | 2.0 | 7.0 | 0.00 | 0.00 | 0.00 | 83 | 1014.0 |
| 20260509023520 | 79 | 63 | 2.0 | 7.0 | 0.00 | 0.00 | 0.00 | 83 | 1014.1 |
| 20260509023034 | 79 | 50 | 1.0 | 8.0 | 0.00 | 0.00 | 0.00 | 82 | 1014.1 |
| 20260509022522 | 79 | 76 | 4.0 | 8.0 | 0.00 | 0.00 | 0.00 | 83 | 1014.1 |
| 20260509022022 | 79 | 76 | 4.0 | 8.0 | 0.00 | 0.00 | 0.00 | 82 | 1014.0 |
| 20260509021541 | 79 | 91 | 1.0 | 5.0 | 0.00 | 0.00 | 0.00 | 83 | 1014.0 |
| 20260509021021 | 79 | 0 | 0.0 | 0.0 | 0.00 | 0.00 | 0.00 | 82 | 1013.9 |
| 20260509020521 | 79 | 0 | 0.0 | 3.0 | 0.00 | 0.00 | 0.00 | 82 | 1014.0 |
| 20260509020041 | 79 | 0 | 0.0 | 6.0 | 0.00 | 0.00 | 0.00 | 82 | 1014.0 |
| 20260509015522 | 79 | 277 | 2.0 | 7.0 | 0.00 | 0.00 | 0.00 | 82 | 1013.9 |
| 20260509015020 | 79 | 306 | 2.0 | 9.0 | 0.00 | 0.00 | 0.00 | 82 | 1013.8 |
| 20260509014543 | 79 | 279 | 4.0 | 9.0 | 0.00 | 0.00 | 0.00 | 82 | 1013.7 |
| 20260509014020 | 79 | 301 | 2.0 | 10.0 | 0.00 | 0.00 | 0.00 | 82 | 1013.5 |
| 20260509013524 | 79 | 114 | 5.0 | 10.0 | 0.00 | 0.00 | 0.00 | 83 | 1012.8 |
| 20260509013051 | 79 | 114 | 7.0 | 10.0 | 0.00 | 0.00 | 0.00 | 82 | 1012.8 |
| 20260509012519 | 79 | 104 | 7.0 | 10.0 | 0.00 | 0.00 | 0.00 | 82 | 1012.7 |
| 20260509012021 | 79 | 106 | 6.0 | 9.0 | 0.00 | 0.00 | 0.00 | 82 | 1012.7 |
| 20260509011546 | 80 | 101 | 5.0 | 10.0 | 0.00 | 0.00 | 0.00 | 82 | 1012.7 |
| 20260509011021 | 80 | 81 | 6.0 | 11.0 | 0.00 | 0.00 | 0.00 | 82 | 1012.5 |
| 20260509010524 | 80 | 100 | 7.0 | 11.0 | 0.00 | 0.00 | 0.00 | 82 | 1012.3 |
| 20260509010109 | 80 | 107 | 7.0 | 13.0 | 0.00 | 0.00 | 0.00 | 82 | 1012.3 |
| 20260509005523 | 80 | 92 | 8.0 | 13.0 | 0.00 | 0.00 | 0.00 | 81 | 1012.3 |
| 20260509005024 | 80 | 120 | 10.0 | 13.0 | 0.00 | 0.00 | 0.00 | 81 | 1012.1 |
| 20260509004552 | 81 | 110 | 10.0 | 13.0 | 0.00 | 0.00 | 0.00 | 81 | 1012.0 |
| 20260509004024 | 81 | 112 | 9.0 | 12.0 | 0.00 | 0.00 | 0.00 | 80 | 1012.0 |
| 20260509003523 | 81 | 118 | 8.0 | 12.0 | 0.00 | 0.00 | 0.00 | 80 | 1012.0 |
| 20260509003044 | 81 | 113 | 8.0 | 11.0 | 0.00 | 0.00 | 0.00 | 80 | 1012.0 |
| 20260509002521 | 81 | 108 | 8.0 | 11.0 | 0.00 | 0.00 | 0.00 | 80 | 1012.1 |
| 20260509002025 | 82 | 115 | 8.0 | 10.0 | 0.00 | 0.00 | 0.00 | 78 | 1012.1 |
| 20260509001549 | 82 | 121 | 8.0 | 11.0 | 0.00 | 0.00 | 0.00 | 79 | 1012.0 |
| 20260509001021 | 82 | 115 | 8.0 | 11.0 | 0.00 | 0.00 | 0.00 | 78 | 1012.1 |
| 20260509000522 | 82 | 123 | 8.0 | 11.0 | 0.00 | 0.00 | 0.00 | 78 | 1012.0 |
| 20260509000044 | 82 | 129 | 8.0 | 11.0 | 0.00 | 0.00 | 0.00 | 77 | 1011.9 |
| 20260508235523 | 83 | 117 | 6.0 | 12.0 | 0.00 | 0.00 | 0.00 | 78 | 1011.9 |
| 20260508235021 | 83 | 130 | 8.0 | 12.0 | 0.00 | 0.00 | 0.00 | 77 | 1011.8 |
| 20260508234542 | 83 | 137 | 8.0 | 13.0 | 0.00 | 0.00 | 0.00 | 77 | 1011.7 |
| 20260508234024 | 83 | 123 | 10.0 | 15.0 | 0.00 | 0.00 | 0.00 | 76 | 1011.5 |
| 20260508233526 | 83 | 121 | 11.0 | 15.0 | 0.00 | 0.00 | 0.00 | 76 | 1011.5 |
| 20260508233045 | 83 | 121 | 10.0 | 15.0 | 0.00 | 0.00 | 0.00 | 76 | 1011.5 |